Weather History for KPGD - December, 2012

Change the Weather History Date:

Saturday, December 29, 2012

  Actual Average (KFMY) Record (KFMY)
Temperature  
Mean Temperature 68 °F 65 °F  
Max Temperature 78 °F 75 °F 87 °F (1990)
Min Temperature 55 °F 54 °F 24 °F (1894)
Degree Days  
Heating Degree Days 0 3  
Month to date heating degree days 65  
Since 1 July heating degree days 83  
Cooling Degree Days 2 3  
Month to date cooling degree days 115  
Year to date cooling degree days 3978  
Growing Degree Days 18 (Base 50)    
Moisture  
Dew Point 66 °F    
Average Humidity 85    
Maximum Humidity 100    
Minimum Humidity 66    
Precipitation  
Precipitation 0.00 in 0.05 in 0.88 in (1939)
Month to date precipitation 1.59  
Year to date precipitation 55.81  
Sea Level Pressure  
Sea Level Pressure 30.02 in    
Wind  
Wind Speed 11 mph (WSW)    
Max Wind Speed 17 mph    
Max Gust Speed 26 mph    
Visibility 10 miles    
Events      
T = Trace of Precipitation, MM = Missing Value Source: NWS Daily Summary

Daily Weather History Graph

Daily Weather History Graph

Search for Another Location

Airport or City:

Trip Planner

Search our weather history database for the weather conditions in past years. The results will help you decide how hot, cold, wet, or windy it might be!

Date:

Astronomy

Dec. 29, 2012 Rise Set
Actual Time 7:16 AM EST 5:44 PM EST
Civil Twilight 6:50 AM EST 6:09 PM EST
Nautical Twilight 6:21 AM EST 6:38 PM EST
Astronomical Twilight 5:53 AM EST 7:07 PM EST
Moon 7:06 PM EST (12/29) 7:56 AM EST (12/29)
Length of Visible Light 11h 19m
Length of Day
10h 28m
Full, 98% of the Moon is Illuminated
Dec 29
Full
Jan 4
Last Quarter
Jan 11
New
Jan 18
First Quarter
Jan 26
Full

Hourly Weather History & Observations

Time (EST) Temp. Dew Point Humidity Pressure Visibility Wind Dir Wind Speed Gust Speed Precip Events Conditions
12:53 AM 68.0 °F 66.0 °F 93% 29.97 in 7.0 mi SSE 4.6 mph - N/A   Overcast
1:53 AM 68.0 °F 66.9 °F 96% 29.96 in 6.0 mi South 5.8 mph - N/A   Mostly Cloudy
2:53 AM 70.0 °F 68.0 °F 93% 29.94 in 10.0 mi South 9.2 mph - N/A   Clear
3:36 AM 69.8 °F 69.8 °F 100% 29.94 in 10.0 mi South 13.8 mph - N/A   Scattered Clouds
3:45 AM 71.6 °F 69.8 °F 94% 29.94 in 10.0 mi South 12.7 mph - N/A   Mostly Cloudy
3:53 AM 71.1 °F 69.1 °F 93% 29.94 in 10.0 mi South 13.8 mph - N/A   Mostly Cloudy
4:53 AM 73.0 °F 71.1 °F 93% 29.94 in 10.0 mi South 17.3 mph - N/A   Overcast
5:53 AM 73.0 °F 71.1 °F 93% 29.97 in 10.0 mi SSW 15.0 mph 21.9 mph N/A   Overcast
6:53 AM 73.0 °F 71.1 °F 93% 29.98 in 10.0 mi SSW 12.7 mph - N/A   Overcast
7:53 AM 73.9 °F 71.1 °F 91% 30.01 in 10.0 mi SSW 12.7 mph - N/A   Mostly Cloudy
8:32 AM 73.4 °F 71.6 °F 94% 30.02 in 10.0 mi SSW 12.7 mph - N/A   Scattered Clouds
8:53 AM 75.0 °F 72.0 °F 90% 30.03 in 10.0 mi SSW 15.0 mph - N/A   Clear
9:39 AM 75.2 °F 71.6 °F 89% 30.04 in 10.0 mi SW 12.7 mph - N/A   Mostly Cloudy
9:53 AM 77.0 °F 71.1 °F 82% 30.05 in 10.0 mi SW 17.3 mph 23.0 mph N/A   Mostly Cloudy
10:03 AM 77.0 °F 71.6 °F 83% 30.04 in 10.0 mi SW 13.8 mph - N/A   Mostly Cloudy
10:53 AM 77.0 °F 71.1 °F 82% 30.04 in 10.0 mi SW 15.0 mph - N/A   Overcast
11:53 AM 77.0 °F 71.1 °F 82% 30.02 in 10.0 mi WSW 12.7 mph - N/A   Mostly Cloudy
12:06 PM 78.8 °F 71.6 °F 78% 30.01 in 7.0 mi SW 17.3 mph 26.5 mph N/A   Overcast
12:53 PM 75.0 °F 70.0 °F 84% 29.99 in 7.0 mi WSW 13.8 mph - N/A   Overcast
1:00 PM 75.2 °F 69.8 °F 83% 29.99 in 10.0 mi WSW 13.8 mph - N/A   Overcast
1:07 PM 75.2 °F 69.8 °F 83% 29.99 in 10.0 mi WSW 13.8 mph - N/A   Mostly Cloudy
1:32 PM 73.4 °F 69.8 °F 88% 29.98 in 10.0 mi WSW 12.7 mph - N/A   Mostly Cloudy
1:53 PM 75.0 °F 69.1 °F 82% 29.98 in 10.0 mi WSW 12.7 mph - N/A   Mostly Cloudy
2:53 PM 75.0 °F 66.0 °F 73% 29.97 in 10.0 mi West 11.5 mph - N/A   Mostly Cloudy
3:09 PM 75.2 °F 64.4 °F 69% 29.97 in 10.0 mi West 11.5 mph - N/A   Mostly Cloudy
3:53 PM 75.0 °F 63.0 °F 66% 29.99 in 10.0 mi WNW 10.4 mph - N/A   Mostly Cloudy
4:53 PM 72.0 °F 62.1 °F 71% 30.00 in 10.0 mi NW 9.2 mph - N/A   Clear
6:53 PM 64.0 °F 57.9 °F 80% 30.08 in 10.0 mi NNW 10.4 mph - N/A   Scattered Clouds
7:53 PM 62.1 °F 55.0 °F 78% 30.11 in 10.0 mi NNW 12.7 mph - N/A   Partly Cloudy
8:53 PM 60.1 °F 54.0 °F 80% 30.14 in 10.0 mi NW 12.7 mph - N/A   Clear
9:53 PM 57.9 °F 52.0 °F 81% 30.17 in 10.0 mi NW 11.5 mph - N/A   Clear
10:53 PM 57.0 °F 51.1 °F 81% 30.18 in 10.0 mi NNW 9.2 mph - N/A   Clear
11:53 PM 55.9 °F 50.0 °F 80% 30.19 in 10.0 mi NNW 9.2 mph - N/A   Clear